QPF
0.01 0.01 0.04 0.10 0.18 0.18 0.15 0.12 0.09 0.08 0.05 0.03 0.02 0.02 0.04 0.06 0.07 0.08 0.11 0.15 0.11 0.08 0.08 0.08 0.07 0.08 0.09 0.09 0.11 0.17 0.20 0.17 0.13 0.10 0.10 0.08 0.08 0.08 0.09 0.07 0.07 0.07 0.05 0.07 0.07 0.06 0.05 0.04 0.04
0.02 0.02 0.08 0.17 0.20 0.17 0.13 0.11 0.07 0.04 0.02 0.01 0.01 0.02 0.05 0.04 0.03 0.06 0.10 0.10 0.10 0.10 0.09 0.08 0.07 0.08 0.09 0.10 0.14 0.17 0.17 0.14 0.14 0.15 0.10 0.07 0.06 0.08 0.10 0.11 0.08 0.07 0.05 0.06 0.07 0.08 0.07 0.07 0.06
0.01 0.02 0.10 0.18 0.16 0.12 0.11 0.09 0.05 0.02 0.01 0.02 0.02 0.02 0.03 0.05 0.06 0.08 0.10 0.10 0.09 0.09 0.09 0.07 0.08 0.10 0.13 0.15 0.13 0.13 0.12 0.11 0.11 0.14 0.09 0.08 0.08 0.07 0.09 0.11 0.10 0.07 0.04 0.03 0.04 0.07 0.08 0.07 0.07
0.01 0.04 0.08 0.13 0.10 0.06 0.07 0.08 0.07 0.05 0.02 0.02 0.03 0.04 0.02 0.04 0.07 0.08 0.08 0.08 0.08 0.07 0.06 0.05 0.07 0.09 0.11 0.11 0.10 0.09 0.11 0.12 0.10 0.09 0.07 0.09 0.10 0.09 0.07 0.08 0.08 0.06 0.04 0.04 0.03 0.05 0.07 0.06 0.06
0.02 0.07 0.11 0.09 0.06 0.04 0.04 0.05 0.06 0.06 0.03 0.03 0.03 0.02 0.03 0.05 0.07 0.05 0.05 0.05 0.04 0.03 0.03 0.05 0.06 0.06 0.07 0.07 0.07 0.08 0.11 0.12 0.08 0.06 0.07 0.12 0.10 0.08 0.07 0.07 0.07 0.06 0.04 0.05 0.04 0.06 0.06 0.04 0.04
0.04 0.06 0.11 0.08 0.05 0.03 0.02 0.03 0.03 0.02 0.02 0.01 0.01 0.02 0.03 0.04 0.07 0.05 0.03 0.01 0.01 0.01 0.02 0.03 0.03 0.04 0.04 0.04 0.04 0.05 0.07 0.09 0.08 0.07 0.07 0.09 0.08 0.06 0.06 0.06 0.06 0.06 0.04 0.04 0.04 0.08 0.08 0.04 0.03
0.04 0.06 0.09 0.06 0.04 0.04 0.02 0.02 0.02 0.02 0.01 0.01 0.01 0.01 0.02 0.03 0.05 0.03 0.03 0.01 0.00 0.02 0.03 0.03 0.02 0.03 0.03 0.03 0.04 0.05 0.06 0.06 0.07 0.06 0.05 0.05 0.06 0.06 0.06 0.07 0.07 0.06 0.04 0.04 0.05 0.08 0.08 0.05 0.04
0.01 0.04 0.06 0.05 0.04 0.03 0.01 0.00 0.00 0.01 0.02 0.01 0.00 0.02 0.02 0.02 0.02 0.02 0.02 0.01 0.01 0.03 0.04 0.04 0.03 0.04 0.04 0.04 0.04 0.05 0.05 0.04 0.04 0.03 0.02 0.02 0.03 0.03 0.03 0.04 0.06 0.05 0.04 0.04 0.06 0.09 0.07 0.05 0.04
0.00 0.06 0.07 0.05 0.04 0.03 0.00 0.00 0.00 0.00 0.00 0.00 0.00 0.01 0.01 0.01 0.01 0.01 0.02 0.01 0.02 0.03 0.03 0.03 0.03 0.03 0.04 0.03 0.03 0.03 0.02 0.02 0.02 0.02 0.02 0.02 0.02 0.01 0.02 0.03 0.03 0.04 0.04 0.04 0.06 0.08 0.07 0.04 0.04
0.02 0.07 0.04 0.01 0.01 0.01 0.01 0.00 0.00 0.00 0.00 0.01 0.00 0.00 0.00 0.00 0.01 0.02 0.02 0.02 0.02 0.03 0.02 0.01 0.01 0.02 0.02 0.02 0.02 0.01 0.00 0.01 0.02 0.02 0.03 0.03 0.03 0.02 0.01 0.01 0.02 0.03 0.02 0.03 0.06 0.11 0.10 0.07 0.04
0.01 0.03 0.02 0.00 0.00 0.00 0.00 0.00 0.00 0.00 0.01 0.01 0.00 0.00 0.00 0.01 0.01 0.02 0.01 0.01 0.01 0.01 0.01 0.01 0.01 0.02 0.02 0.01 0.01 0.00 0.00 0.01 0.01 0.01 0.01 0.01 0.02 0.02 0.01 0.01 0.01 0.02 0.03 0.03 0.05 0.08 0.07 0.07 0.06
0.00 0.01 0.01 0.01 0.00 0.00 0.00 0.00 0.00 0.00 0.01 0.00 0.00 0.00 0.00 0.01 0.01 0.01 0.00 0.00 0.00 0.00 0.00 0.00 0.00 0.01 0.01 0.01 0.01 0.01 0.01 0.01 0.01 0.01 0.01 0.01 0.02 0.01 0.01 0.02 0.02 0.02 0.03 0.03 0.03 0.04 0.04 0.05 0.05
0.00 0.00 0.00 0.00 0.00 0.00 0.00 0.00 0.00 0.00 0.00 0.00 0.00 0.00 0.00 0.00 0.00 0.00 0.00 0.00 0.00 0.00 0.00 0.00 0.00 0.00 0.01 0.01 0.01 0.01 0.01 0.01 0.01 0.01 0.01 0.01 0.01 0.01 0.01 0.01 0.02 0.02 0.02 0.03 0.02 0.03 0.04 0.04 0.04
0.00 0.00 0.00 0.00 0.00 0.00 0.00 0.00 0.00 0.00 0.00 0.00 0.00 0.00 0.00 0.00 0.00 0.00 0.00 0.00 0.00 0.00 0.00 0.00 0.00 0.00 0.01 0.01 0.01 0.00 0.00 0.01 0.01 0.01 0.01 0.01 0.01 0.00 0.01 0.01 0.01 0.02 0.02 0.03 0.03 0.02 0.03 0.04 0.04
0.00 0.00 0.01 0.00 0.00 0.00 0.00 0.01 0.00 0.00 0.00 0.00 0.00 0.00 0.00 0.00 0.00 0.00 0.00 0.00 0.00 0.00 0.00 0.00 0.00 0.00 0.01 0.01 0.00 0.00 0.00 0.01 0.01 0.01 0.00 0.01 0.00 0.00 0.01 0.01 0.01 0.01 0.01 0.02 0.02 0.02 0.03 0.03 0.04
0.00 0.01 0.02 0.01 0.01 0.00 0.01 0.02 0.00 0.00 0.00 0.00 0.00 0.00 0.00 0.00 0.00 0.00 0.00 0.00 0.00 0.00 0.00 0.00 0.01 0.01 0.01 0.00 0.00 0.00 0.00 0.00 0.01 0.01 0.01 0.00 0.00 0.00 0.00 0.01 0.01 0.01 0.01 0.02 0.02 0.02 0.03 0.04 0.05
0.01 0.02 0.02 0.02 0.01 0.01 0.01 0.02 0.00 0.00 0.00 0.00 0.00 0.00 0.00 0.00 0.00 0.00 0.00 0.00 0.00 0.00 0.00 0.00 0.00 0.00 0.00 0.00 0.00 0.00 0.00 0.00 0.00 0.01 0.01 0.00 0.00 0.00 0.00 0.01 0.02 0.01 0.02 0.03 0.03 0.03 0.05 0.05 0.05
0.01 0.01 0.01 0.02 0.01 0.01 0.01 0.01 0.00 0.00 0.00 0.00 0.00 0.00 0.00 0.00 0.00 0.00 0.00 0.00 0.00 0.00 0.00 0.00 0.00 0.00 0.00 0.00 0.00 0.00 0.00 0.00 0.00 0.00 0.00 0.00 0.00 0.00 0.00 0.01 0.01 0.02 0.02 0.03 0.02 0.04 0.06 0.05 0.04
0.00 0.00 0.01 0.01 0.01 0.02 0.01 0.01 0.00 0.00 0.00 0.00 0.00 0.00 0.00 0.00 0.00 0.00 0.00 0.00 0.00 0.00 0.00 0.00 0.00 0.00 0.00 0.00 0.00 0.00 0.00 0.00 0.00 0.00 0.00 0.00 0.00 0.00 0.00 0.01 0.01 0.02 0.02 0.01 0.01 0.03 0.05 0.05 0.04
0.00 0.00 0.01 0.01 0.01 0.01 0.01 0.01 0.00 0.00 0.00 0.00 0.00 0.00 0.00 0.00 0.00 0.00 0.00 0.00 0.00 0.00 0.00 0.00 0.00 0.00 0.00 0.00 0.00 0.00 0.00 0.00 0.00 0.00 0.00 0.00 0.00 0.00 0.00 0.01 0.01 0.01 0.01 0.01 0.01 0.02 0.04 0.06 0.05
0.00 0.00 0.01 0.01 0.01 0.01 0.02 0.01 0.01 0.00 0.00 0.00 0.00 0.01 0.01 0.00 0.00 0.00 0.00 0.00 0.00 0.00 0.00 0.00 0.00 0.00 0.00 0.00 0.00 0.00 0.00 0.01 0.01 0.01 0.02 0.01 0.00 0.00 0.01 0.01 0.01 0.01 0.01 0.02 0.01 0.02 0.04 0.07 0.05
0.01 0.01 0.01 0.01 0.01 0.02 0.01 0.03 0.01 0.01 0.00 0.00 0.00 0.01 0.01 0.00 0.00 0.00 0.00 0.00 0.00 0.00 0.00 0.00 0.00 0.00 0.00 0.00 0.00 0.00 0.01 0.02 0.01 0.01 0.01 0.01 0.01 0.00 0.00 0.01 0.01 0.01 0.01 0.01 0.01 0.02 0.04 0.06 0.07
0.00 0.00 0.01 0.01 0.02 0.03 0.01 0.02 0.03 0.01 0.01 0.00 0.00 0.00 0.00 0.00 0.00 0.00 0.01 0.00 0.00 0.00 0.00 0.00 0.00 0.00 0.00 0.00 0.00 0.00 0.00 0.01 0.01 0.01 0.01 0.01 0.01 0.01 0.00 0.00 0.01 0.01 0.01 0.00 0.01 0.03 0.03 0.05 0.07
0.00 0.00 0.01 0.01 0.02 0.03 0.01 0.03 0.05 0.01 0.00 0.00 0.00 0.00 0.00 0.00 0.00 0.00 0.01 0.01 0.00 0.00 0.00 0.00 0.00 0.00 0.00 0.00 0.00 0.00 0.00 0.01 0.01 0.02 0.01 0.02 0.02 0.02 0.01 0.00 0.00 0.00 0.00 0.00 0.01 0.02 0.03 0.03 0.04
0.00 0.01 0.02 0.02 0.03 0.02 0.00 0.01 0.02 0.00 0.00 0.00 0.00 0.00 0.00 0.00 0.00 0.00 0.00 0.01 0.00 0.00 0.00 0.00 0.00 0.00 0.00 0.00 0.00 0.00 0.01 0.02 0.02 0.02 0.01 0.02 0.02 0.02 0.01 0.01 0.02 0.01 0.01 0.00 0.01 0.01 0.02 0.02 0.02
0.00 0.01 0.02 0.03 0.02 0.02 0.01 0.01 0.01 0.00 0.00 0.00 0.00 0.00 0.00 0.00 0.00 0.00 0.00 0.00 0.00 0.00 0.00 0.00 0.00 0.00 0.01 0.01 0.01 0.01 0.01 0.01 0.02 0.02 0.01 0.02 0.03 0.01 0.00 0.00 0.01 0.01 0.01 0.01 0.02 0.02 0.01 0.02 0.03
0.00 0.00 0.00 0.01 0.02 0.03 0.02 0.01 0.01 0.00 0.00 0.00 0.00 0.00 0.00 0.00 0.00 0.00 0.00 0.00 0.00 0.00 0.00 0.00 0.00 0.01 0.01 0.02 0.02 0.01 0.01 0.02 0.01 0.01 0.01 0.02 0.02 0.01 0.00 0.00 0.00 0.01 0.01 0.01 0.01 0.02 0.01 0.02 0.02
0.00 0.01 0.01 0.02 0.03 0.04 0.03 0.02 0.02 0.01 0.00 0.00 0.00 0.00 0.00 0.00 0.00 0.00 0.00 0.00 0.01 0.00 0.00 0.00 0.01 0.01 0.01 0.02 0.02 0.02 0.02 0.02 0.01 0.01 0.01 0.01 0.00 0.00 0.00 0.00 0.00 0.01 0.00 0.01 0.01 0.02 0.02 0.02 0.02
0.01 0.01 0.01 0.01 0.01 0.02 0.04 0.02 0.00 0.00 0.00 0.00 0.00 0.00 0.00 0.00 0.00 0.00 0.00 0.00 0.00 0.00 0.00 0.01 0.01 0.00 0.01 0.01 0.01 0.02 0.02 0.02 0.01 0.00 0.01 0.02 0.01 0.01 0.00 0.00 0.00 0.01 0.01 0.01 0.03 0.02 0.01 0.02 0.02
0.00 0.01 0.01 0.02 0.01 0.01 0.02 0.02 0.00 0.00 0.00 0.00 0.00 0.00 0.00 0.00 0.00 0.00 0.00 0.00 0.00 0.00 0.00 0.01 0.01 0.00 0.00 0.00 0.01 0.01 0.03 0.03 0.02 0.02 0.03 0.02 0.01 0.00 0.00 0.00 0.00 0.00 0.00 0.01 0.02 0.01 0.01 0.01 0.01
MSLP
1009.35 1010.20 1011.24 1012.35 1013.39 1014.20 1014.69 1014.82 1014.63 1014.24 1013.78 1013.42 1013.26 1013.35 1013.65 1014.07 1014.47 1014.73 1014.75 1014.51 1014.07 1013.51 1012.96 1012.51 1012.23 1012.13 1012.16 1012.24 1012.31 1012.31 1012.25 1012.16 1012.11 1012.17 1012.39 1012.78 1013.29 1013.86 1014.40 1014.81 1015.07 1015.16 1015.11 1014.98 1014.83 1014.70 1014.63 1014.61 1014.62
1009.69 1010.69 1011.83 1012.97 1013.95 1014.64 1014.97 1014.93 1014.59 1014.09 1013.60 1013.25 1013.16 1013.32 1013.69 1014.15 1014.55 1014.78 1014.75 1014.46 1013.99 1013.43 1012.91 1012.53 1012.33 1012.30 1012.37 1012.48 1012.53 1012.49 1012.37 1012.21 1012.10 1012.11 1012.30 1012.67 1013.17 1013.73 1014.27 1014.70 1014.97 1015.09 1015.09 1015.01 1014.92 1014.85 1014.83 1014.82 1014.83
1010.13 1011.24 1012.44 1013.55 1014.44 1014.99 1015.14 1014.93 1014.46 1013.88 1013.36 1013.05 1013.01 1013.24 1013.66 1014.15 1014.55 1014.74 1014.67 1014.36 1013.87 1013.34 1012.88 1012.57 1012.46 1012.50 1012.64 1012.76 1012.81 1012.74 1012.57 1012.37 1012.20 1012.17 1012.31 1012.64 1013.09 1013.62 1014.12 1014.52 1014.80 1014.95 1015.00 1015.01 1015.01 1015.02 1015.06 1015.09 1015.10
1010.64 1011.82 1013.02 1014.07 1014.84 1015.23 1015.22 1014.86 1014.29 1013.65 1013.14 1012.87 1012.89 1013.17 1013.63 1014.13 1014.51 1014.67 1014.56 1014.23 1013.76 1013.27 1012.88 1012.66 1012.63 1012.75 1012.94 1013.09 1013.14 1013.06 1012.86 1012.62 1012.43 1012.36 1012.46 1012.73 1013.13 1013.60 1014.04 1014.42 1014.69 1014.86 1014.98 1015.07 1015.17 1015.29 1015.40 1015.48 1015.49
1011.18 1012.38 1013.54 1014.50 1015.13 1015.38 1015.23 1014.76 1014.12 1013.48 1012.99 1012.77 1012.85 1013.18 1013.65 1014.13 1014.48 1014.59 1014.45 1014.11 1013.67 1013.23 1012.92 1012.78 1012.84 1013.03 1013.26 1013.43 1013.48 1013.39 1013.19 1012.95 1012.75 1012.66 1012.74 1012.98 1013.33 1013.73 1014.13 1014.46 1014.73 1014.93 1015.10 1015.28 1015.47 1015.67 1015.85 1015.97 1015.99
1011.68 1012.86 1013.94 1014.79 1015.30 1015.42 1015.17 1014.65 1014.00 1013.39 1012.96 1012.80 1012.93 1013.28 1013.75 1014.19 1014.48 1014.54 1014.36 1014.02 1013.60 1013.22 1012.98 1012.93 1013.06 1013.29 1013.55 1013.73 1013.79 1013.70 1013.51 1013.29 1013.11 1013.05 1013.13 1013.35 1013.67 1014.04 1014.39 1014.69 1014.94 1015.16 1015.37 1015.61 1015.88 1016.15 1016.37 1016.51 1016.52
1012.10 1013.21 1014.20 1014.93 1015.32 1015.35 1015.05 1014.52 1013.91 1013.37 1013.03 1012.95 1013.12 1013.48 1013.91 1014.29 1014.50 1014.50 1014.29 1013.93 1013.54 1013.22 1013.05 1013.06 1013.23 1013.50 1013.76 1013.94 1014.00 1013.93 1013.76 1013.58 1013.45 1013.44 1013.56 1013.80 1014.11 1014.45 1014.77 1015.05 1015.28 1015.50 1015.74 1016.02 1016.33 1016.63 1016.87 1017.01 1017.00
1012.42 1013.43 1014.29 1014.90 1015.19 1015.16 1014.85 1014.37 1013.85 1013.42 1013.18 1013.17 1013.38 1013.73 1014.11 1014.41 1014.54 1014.46 1014.21 1013.85 1013.48 1013.21 1013.09 1013.14 1013.34 1013.61 1013.87 1014.04 1014.10 1014.04 1013.91 1013.78 1013.72 1013.77 1013.95 1014.22 1014.55 1014.89 1015.19 1015.44 1015.65 1015.86 1016.10 1016.39 1016.70 1017.00 1017.24 1017.36 1017.33
1012.63 1013.51 1014.23 1014.72 1014.94 1014.88 1014.60 1014.20 1013.79 1013.48 1013.35 1013.42 1013.66 1013.99 1014.31 1014.52 1014.56 1014.41 1014.11 1013.74 1013.40 1013.16 1013.08 1013.16 1013.37 1013.63 1013.87 1014.03 1014.07 1014.02 1013.93 1013.86 1013.87 1014.00 1014.24 1014.56 1014.91 1015.25 1015.53 1015.76 1015.95 1016.14 1016.36 1016.62 1016.91 1017.20 1017.42 1017.52 1017.47
1012.76 1013.50 1014.09 1014.47 1014.61 1014.54 1014.31 1014.01 1013.72 1013.54 1013.52 1013.65 1013.91 1014.21 1014.46 1014.58 1014.54 1014.33 1013.99 1013.61 1013.29 1013.08 1013.02 1013.13 1013.33 1013.58 1013.79 1013.92 1013.95 1013.92 1013.86 1013.84 1013.92 1014.11 1014.40 1014.76 1015.13 1015.46 1015.73 1015.93 1016.09 1016.25 1016.43 1016.67 1016.93 1017.19 1017.38 1017.47 1017.43
1012.87 1013.46 1013.92 1014.20 1014.29 1014.22 1014.04 1013.82 1013.65 1013.58 1013.64 1013.82 1014.08 1014.34 1014.53 1014.58 1014.46 1014.20 1013.84 1013.47 1013.16 1012.98 1012.95 1013.06 1013.26 1013.49 1013.67 1013.78 1013.80 1013.77 1013.74 1013.76 1013.88 1014.11 1014.44 1014.81 1015.19 1015.51 1015.76 1015.93 1016.06 1016.19 1016.34 1016.54 1016.77 1017.01 1017.19 1017.29 1017.27
1013.01 1013.47 1013.80 1013.99 1014.04 1013.97 1013.83 1013.69 1013.59 1013.60 1013.71 1013.92 1014.16 1014.38 1014.51 1014.50 1014.33 1014.05 1013.69 1013.33 1013.05 1012.90 1012.90 1013.01 1013.21 1013.41 1013.57 1013.66 1013.68 1013.65 1013.63 1013.68 1013.82 1014.06 1014.39 1014.76 1015.11 1015.41 1015.64 1015.79 1015.89 1015.99 1016.12 1016.30 1016.52 1016.75 1016.94 1017.06 1017.09
1013.21 1013.57 1013.80 1013.92 1013.92 1013.84 1013.73 1013.62 1013.57 1013.61 1013.74 1013.94 1014.15 1014.33 1014.41 1014.36 1014.17 1013.88 1013.55 1013.23 1012.99 1012.87 1012.89 1013.01 1013.21 1013.40 1013.55 1013.63 1013.64 1013.62 1013.61 1013.66 1013.79 1014.02 1014.32 1014.65 1014.97 1015.24 1015.43 1015.56 1015.65 1015.74 1015.87 1016.05 1016.27 1016.52 1016.74 1016.91 1017.00
1013.50 1013.77 1013.93 1013.99 1013.96 1013.87 1013.75 1013.65 1013.61 1013.64 1013.74 1013.90 1014.07 1014.20 1014.25 1014.19 1014.01 1013.75 1013.45 1013.19 1013.00 1012.92 1012.96 1013.10 1013.29 1013.48 1013.63 1013.72 1013.74 1013.73 1013.72 1013.76 1013.87 1014.05 1014.30 1014.57 1014.84 1015.06 1015.22 1015.34 1015.43 1015.54 1015.68 1015.88 1016.13 1016.41 1016.67 1016.90 1017.07
1013.85 1014.06 1014.17 1014.19 1014.13 1014.02 1013.89 1013.76 1013.68 1013.67 1013.72 1013.82 1013.94 1014.03 1014.06 1014.01 1013.87 1013.66 1013.43 1013.23 1013.09 1013.06 1013.12 1013.27 1013.47 1013.67 1013.83 1013.93 1013.98 1013.98 1013.97 1014.00 1014.07 1014.20 1014.37 1014.57 1014.77 1014.94 1015.08 1015.19 1015.30 1015.43 1015.62 1015.85 1016.14 1016.46 1016.78 1017.07 1017.30
1014.21 1014.38 1014.47 1014.46 1014.39 1014.25 1014.08 1013.92 1013.78 1013.69 1013.67 1013.70 1013.76 1013.82 1013.86 1013.84 1013.76 1013.63 1013.49 1013.36 1013.28 1013.28 1013.37 1013.53 1013.73 1013.94 1014.12 1014.25 1014.33 1014.35 1014.36 1014.36 1014.39 1014.46 1014.56 1014.68 1014.81 1014.93 1015.04 1015.16 1015.29 1015.46 1015.69 1015.97 1016.30 1016.67 1017.03 1017.37 1017.67
1014.52 1014.67 1014.74 1014.73 1014.65 1014.49 1014.29 1014.07 1013.85 1013.68 1013.57 1013.53 1013.55 1013.60 1013.66 1013.70 1013.70 1013.67 1013.62 1013.57 1013.55 1013.59 1013.69 1013.85 1014.05 1014.27 1014.47 1014.63 1014.74 1014.80 1014.82 1014.82 1014.81 1014.82 1014.85 1014.89 1014.95 1015.03 1015.12 1015.24 1015.39 1015.60 1015.87 1016.20 1016.57 1016.96 1017.36 1017.74 1018.08
1014.74 1014.88 1014.95 1014.94 1014.86 1014.69 1014.45 1014.17 1013.87 1013.61 1013.42 1013.31 1013.29 1013.34 1013.45 1013.57 1013.68 1013.76 1013.81 1013.85 1013.88 1013.94 1014.04 1014.19 1014.39 1014.60 1014.82 1015.01 1015.16 1015.26 1015.31 1015.31 1015.28 1015.24 1015.21 1015.18 1015.18 1015.21 1015.28 1015.40 1015.57 1015.81 1016.11 1016.46 1016.85 1017.26 1017.68 1018.08 1018.45
1014.85 1014.98 1015.06 1015.07 1014.99 1014.81 1014.54 1014.20 1013.82 1013.47 1013.19 1013.02 1012.98 1013.05 1013.22 1013.44 1013.67 1013.87 1014.04 1014.15 1014.24 1014.32 1014.41 1014.53 1014.70 1014.91 1015.13 1015.35 1015.54 1015.68 1015.77 1015.78 1015.75 1015.68 1015.59 1015.51 1015.46 1015.44 1015.49 1015.60 1015.78 1016.03 1016.34 1016.70 1017.09 1017.51 1017.92 1018.33 1018.71
1014.87 1015.00 1015.09 1015.13 1015.06 1014.88 1014.57 1014.16 1013.70 1013.26 1012.90 1012.67 1012.61 1012.71 1012.95 1013.27 1013.64 1013.97 1014.25 1014.45 1014.59 1014.68 1014.75 1014.85 1014.98 1015.16 1015.38 1015.62 1015.84 1016.03 1016.15 1016.20 1016.17 1016.09 1015.97 1015.85 1015.75 1015.70 1015.71 1015.81 1015.99 1016.23 1016.54 1016.88 1017.26 1017.65 1018.04 1018.44 1018.83
1014.85 1014.99 1015.11 1015.17 1015.12 1014.93 1014.58 1014.10 1013.56 1013.02 1012.57 1012.28 1012.20 1012.32 1012.63 1013.06 1013.55 1014.02 1014.42 1014.71 1014.89 1014.99 1015.05 1015.10 1015.19 1015.34 1015.54 1015.79 1016.04 1016.27 1016.43 1016.52 1016.52 1016.44 1016.31 1016.16 1016.03 1015.95 1015.94 1016.01 1016.17 1016.39 1016.67 1016.99 1017.33 1017.68 1018.04 1018.41 1018.80
1014.86 1015.02 1015.18 1015.28 1015.24 1015.03 1014.64 1014.09 1013.44 1012.79 1012.24 1011.88 1011.76 1011.90 1012.26 1012.79 1013.40 1014.00 1014.51 1014.89 1015.12 1015.24 1015.28 1015.29 1015.34 1015.45 1015.63 1015.87 1016.15 1016.41 1016.62 1016.75 1016.78 1016.72 1016.60 1016.44 1016.29 1016.19 1016.15 1016.20 1016.32 1016.52 1016.77 1017.04 1017.33 1017.64 1017.95 1018.29 1018.65
1014.95 1015.16 1015.37 1015.51 1015.49 1015.26 1014.81 1014.17 1013.41 1012.63 1011.97 1011.51 1011.34 1011.46 1011.86 1012.46 1013.17 1013.88 1014.50 1014.96 1015.26 1015.40 1015.43 1015.42 1015.42 1015.49 1015.65 1015.89 1016.18 1016.47 1016.73 1016.90 1016.97 1016.94 1016.83 1016.68 1016.53 1016.41 1016.35 1016.37 1016.47 1016.63 1016.84 1017.07 1017.32 1017.57 1017.83 1018.12 1018.45
1015.13 1015.42 1015.70 1015.88 1015.88 1015.62 1015.11 1014.37 1013.49 1012.59 1011.79 1011.23 1010.97 1011.05 1011.45 1012.10 1012.88 1013.68 1014.39 1014.94 1015.29 1015.47 1015.51 1015.48 1015.46 1015.51 1015.64 1015.87 1016.17 1016.48 1016.77 1016.99 1017.10 1017.10 1017.02 1016.88 1016.73 1016.60 1016.53 1016.54 1016.61 1016.75 1016.92 1017.12 1017.31 1017.52 1017.73 1017.97 1018.26
1015.41 1015.79 1016.14 1016.37 1016.38 1016.11 1015.54 1014.70 1013.70 1012.66 1011.74 1011.05 1010.69 1010.71 1011.09 1011.74 1012.56 1013.42 1014.20 1014.82 1015.24 1015.46 1015.53 1015.51 1015.48 1015.51 1015.63 1015.85 1016.14 1016.47 1016.78 1017.03 1017.18 1017.22 1017.16 1017.04 1016.90 1016.78 1016.70 1016.69 1016.76 1016.87 1017.03 1017.19 1017.36 1017.52 1017.68 1017.87 1018.10
1015.73 1016.20 1016.63 1016.90 1016.93 1016.64 1016.01 1015.10 1014.00 1012.85 1011.80 1011.00 1010.54 1010.48 1010.79 1011.42 1012.25 1013.14 1013.97 1014.65 1015.13 1015.40 1015.51 1015.51 1015.49 1015.52 1015.63 1015.84 1016.13 1016.46 1016.78 1017.05 1017.22 1017.28 1017.25 1017.16 1017.03 1016.92 1016.85 1016.84 1016.90 1017.01 1017.16 1017.31 1017.46 1017.59 1017.72 1017.86 1018.04
1016.02 1016.57 1017.05 1017.37 1017.40 1017.10 1016.45 1015.49 1014.33 1013.10 1011.96 1011.07 1010.52 1010.37 1010.61 1011.19 1011.99 1012.88 1013.73 1014.45 1014.98 1015.31 1015.46 1015.51 1015.52 1015.55 1015.66 1015.86 1016.14 1016.46 1016.78 1017.04 1017.23 1017.31 1017.30 1017.22 1017.12 1017.02 1016.96 1016.97 1017.04 1017.16 1017.31 1017.46 1017.61 1017.73 1017.84 1017.95 1018.08
1016.24 1016.82 1017.33 1017.66 1017.70 1017.40 1016.75 1015.78 1014.60 1013.34 1012.17 1011.22 1010.61 1010.39 1010.56 1011.07 1011.81 1012.67 1013.52 1014.25 1014.82 1015.20 1015.41 1015.50 1015.55 1015.61 1015.72 1015.91 1016.17 1016.47 1016.77 1017.03 1017.21 1017.30 1017.30 1017.24 1017.16 1017.09 1017.05 1017.08 1017.16 1017.30 1017.47 1017.65 1017.81 1017.94 1018.05 1018.14 1018.25
1016.34 1016.92 1017.41 1017.71 1017.74 1017.44 1016.81 1015.87 1014.73 1013.51 1012.36 1011.41 1010.78 1010.51 1010.61 1011.05 1011.72 1012.52 1013.34 1014.07 1014.65 1015.07 1015.33 1015.48 1015.57 1015.66 1015.79 1015.98 1016.22 1016.49 1016.77 1017.00 1017.17 1017.25 1017.27 1017.23 1017.17 1017.13 1017.12 1017.18 1017.29 1017.46 1017.66 1017.87 1018.06 1018.22 1018.35 1018.45 1018.54
1016.35 1016.85 1017.26 1017.50 1017.50 1017.20 1016.60 1015.73 1014.67 1013.54 1012.47 1011.58 1010.96 1010.67 1010.73 1011.09 1011.68 1012.41 1013.17 1013.87 1014.46 1014.91 1015.22 1015.43 1015.57 1015.70 1015.85 1016.04 1016.27 1016.51 1016.76 1016.96 1017.12 1017.20 1017.23 1017.22 1017.19 1017.18 1017.21 1017.30 1017.45 1017.65 1017.88 1018.12 1018.35 1018.55 1018.71 1018.84 1018.95
Thickness
5813 5816 5815 5801 5780 5767 5764 5773 5783 5782 5784 5791 5795 5790 5777 5769 5760 5747 5764 5776 5778 5776 5773 5771 5769 5768 5767 5766 5764 5762 5761 5760 5759 5758 5757 5755 5755 5754 5753 5752 5752 5752 5751 5751 5751 5751 5751 5751 5752
5816 5818 5807 5789 5768 5757 5759 5775 5778 5782 5789 5795 5794 5790 5778 5769 5771 5766 5768 5774 5777 5774 5771 5768 5766 5765 5764 5762 5761 5760 5758 5757 5756 5755 5754 5753 5752 5751 5750 5749 5749 5748 5747 5747 5747 5747 5747 5747 5748
5816 5816 5795 5780 5769 5760 5761 5776 5781 5789 5796 5795 5788 5785 5774 5766 5769 5767 5770 5775 5774 5771 5767 5764 5763 5762 5760 5759 5757 5756 5755 5755 5753 5752 5751 5750 5749 5748 5747 5746 5745 5744 5744 5743 5743 5743 5744 5744 5744
5813 5804 5794 5777 5766 5773 5776 5781 5787 5786 5790 5794 5788 5774 5769 5772 5771 5771 5774 5774 5771 5768 5764 5761 5760 5759 5757 5756 5754 5753 5752 5751 5750 5749 5748 5748 5747 5746 5745 5744 5742 5741 5741 5740 5740 5740 5740 5741 5741
5811 5792 5777 5769 5770 5779 5786 5790 5791 5783 5783 5787 5782 5764 5758 5768 5773 5773 5772 5771 5768 5766 5762 5759 5757 5756 5754 5753 5752 5750 5749 5748 5747 5746 5746 5745 5744 5743 5742 5741 5739 5738 5738 5737 5737 5737 5737 5737 5738
5795 5788 5767 5761 5767 5779 5786 5791 5788 5782 5781 5783 5778 5764 5756 5767 5768 5768 5769 5768 5767 5764 5760 5756 5754 5753 5752 5750 5749 5747 5746 5745 5744 5743 5743 5742 5741 5740 5739 5738 5736 5735 5734 5734 5733 5733 5733 5734 5735
5786 5779 5769 5767 5765 5770 5780 5789 5782 5777 5776 5778 5781 5763 5756 5762 5766 5768 5768 5766 5765 5764 5761 5757 5753 5751 5749 5748 5746 5745 5744 5743 5742 5740 5740 5739 5738 5737 5736 5735 5734 5733 5731 5730 5730 5730 5730 5731 5732
5796 5782 5771 5769 5765 5766 5782 5786 5785 5779 5774 5785 5784 5762 5752 5760 5767 5767 5765 5763 5762 5761 5760 5758 5754 5751 5748 5746 5744 5742 5742 5741 5739 5739 5737 5736 5735 5734 5733 5732 5731 5730 5729 5728 5727 5728 5728 5728 5729
5800 5772 5761 5766 5766 5768 5782 5779 5782 5787 5780 5778 5777 5770 5766 5768 5767 5762 5759 5757 5757 5757 5758 5757 5754 5752 5749 5746 5744 5742 5741 5739 5738 5737 5736 5735 5734 5733 5731 5730 5729 5728 5727 5726 5726 5726 5726 5726 5727
5789 5763 5766 5777 5781 5776 5779 5778 5779 5776 5769 5766 5765 5766 5767 5765 5762 5757 5753 5751 5751 5752 5755 5756 5754 5752 5749 5747 5744 5742 5741 5739 5737 5736 5735 5734 5733 5732 5730 5728 5727 5726 5726 5725 5725 5725 5724 5725 5726
5786 5771 5776 5781 5785 5784 5778 5777 5780 5770 5758 5761 5759 5759 5762 5760 5758 5755 5753 5752 5751 5753 5753 5755 5754 5752 5749 5746 5744 5742 5741 5739 5737 5736 5735 5733 5732 5730 5728 5726 5725 5725 5724 5724 5724 5724 5724 5724 5725
5780 5779 5780 5779 5783 5780 5776 5775 5772 5767 5763 5771 5768 5765 5761 5757 5755 5754 5752 5752 5752 5751 5751 5753 5753 5751 5748 5745 5743 5741 5740 5738 5737 5735 5734 5733 5731 5730 5728 5727 5726 5725 5724 5724 5724 5724 5725 5724 5724
5775 5774 5779 5780 5779 5778 5776 5770 5767 5764 5770 5772 5768 5763 5758 5757 5756 5756 5756 5754 5752 5749 5749 5750 5751 5749 5746 5744 5742 5740 5738 5737 5736 5734 5733 5732 5731 5729 5728 5727 5725 5725 5724 5723 5723 5723 5722 5722 5722
5777 5777 5776 5776 5774 5775 5768 5766 5764 5762 5769 5766 5762 5758 5757 5755 5755 5754 5754 5752 5751 5749 5748 5748 5748 5747 5745 5743 5741 5739 5738 5736 5734 5733 5733 5732 5730 5729 5727 5726 5724 5723 5723 5723 5722 5721 5719 5718 5718
5779 5768 5766 5770 5771 5771 5766 5753 5758 5765 5766 5760 5758 5757 5756 5755 5754 5753 5753 5752 5752 5750 5748 5746 5746 5746 5744 5742 5740 5738 5737 5735 5733 5733 5732 5731 5730 5728 5726 5725 5723 5723 5722 5721 5720 5719 5717 5716 5716
5770 5758 5747 5761 5768 5768 5754 5737 5757 5766 5762 5755 5755 5755 5752 5753 5754 5754 5755 5754 5753 5751 5747 5745 5745 5743 5741 5739 5738 5737 5735 5734 5732 5732 5731 5730 5728 5727 5725 5723 5721 5721 5720 5719 5718 5716 5714 5712 5711
5755 5744 5745 5754 5767 5765 5754 5742 5756 5764 5760 5754 5754 5753 5751 5750 5752 5754 5755 5754 5752 5750 5746 5743 5742 5740 5738 5737 5736 5735 5733 5732 5730 5729 5729 5728 5727 5725 5723 5721 5720 5720 5718 5717 5716 5714 5712 5709 5708
5747 5750 5750 5750 5761 5760 5750 5747 5755 5762 5759 5756 5754 5753 5751 5750 5751 5754 5754 5753 5750 5748 5746 5742 5740 5739 5737 5735 5734 5732 5730 5730 5728 5727 5726 5725 5725 5723 5721 5720 5719 5718 5716 5714 5713 5711 5710 5709 5708
5762 5756 5751 5756 5767 5757 5749 5749 5755 5760 5758 5755 5754 5753 5751 5751 5754 5754 5752 5750 5747 5745 5743 5741 5738 5737 5735 5732 5729 5727 5725 5726 5725 5725 5724 5723 5723 5722 5720 5719 5718 5716 5715 5713 5712 5710 5708 5707 5707
5761 5753 5751 5758 5766 5757 5750 5751 5759 5761 5759 5759 5756 5754 5752 5751 5750 5749 5749 5747 5745 5742 5741 5741 5738 5736 5734 5732 5731 5729 5726 5725 5724 5723 5722 5722 5722 5721 5720 5718 5716 5715 5714 5712 5711 5709 5707 5706 5707
5756 5751 5750 5749 5756 5758 5748 5743 5753 5761 5765 5763 5762 5759 5756 5752 5749 5747 5746 5745 5743 5740 5741 5741 5738 5736 5734 5732 5731 5729 5725 5722 5720 5719 5719 5720 5720 5719 5719 5718 5716 5715 5713 5711 5710 5709 5706 5703 5705
5747 5761 5757 5750 5739 5735 5743 5723 5745 5757 5755 5757 5757 5756 5755 5754 5752 5749 5746 5743 5741 5741 5741 5740 5738 5736 5734 5731 5728 5724 5719 5716 5717 5718 5718 5719 5719 5718 5718 5717 5716 5714 5713 5711 5711 5710 5708 5705 5702
5754 5763 5757 5749 5739 5733 5741 5730 5740 5756 5747 5752 5756 5757 5757 5756 5754 5750 5747 5744 5743 5742 5740 5739 5736 5734 5732 5730 5728 5724 5721 5720 5719 5719 5718 5717 5717 5717 5716 5716 5715 5714 5713 5712 5711 5710 5708 5707 5704
5762 5755 5751 5747 5736 5718 5737 5731 5732 5749 5752 5755 5758 5759 5758 5757 5755 5752 5749 5745 5742 5740 5738 5736 5733 5731 5730 5729 5727 5724 5721 5720 5718 5716 5715 5715 5715 5716 5715 5715 5715 5714 5713 5712 5711 5710 5709 5708 5706
5754 5734 5717 5714 5711 5721 5750 5740 5740 5761 5767 5764 5760 5760 5760 5758 5754 5750 5745 5742 5739 5737 5735 5733 5730 5727 5728 5727 5726 5724 5723 5721 5718 5717 5715 5714 5713 5713 5714 5715 5714 5714 5713 5713 5712 5710 5709 5708 5706
5746 5738 5715 5705 5712 5727 5744 5737 5751 5769 5771 5770 5767 5764 5761 5757 5754 5749 5745 5742 5739 5736 5733 5730 5728 5726 5725 5725 5725 5725 5723 5721 5719 5718 5717 5716 5715 5715 5715 5715 5714 5714 5714 5713 5712 5710 5710 5709 5707
5739 5737 5745 5729 5727 5722 5732 5745 5753 5765 5763 5764 5762 5759 5756 5755 5753 5749 5745 5742 5739 5735 5732 5729 5727 5725 5723 5723 5724 5723 5722 5720 5719 5719 5718 5717 5717 5716 5716 5715 5713 5713 5713 5712 5711 5709 5708 5708 5706
5749 5743 5734 5721 5707 5705 5723 5731 5732 5743 5749 5754 5755 5754 5753 5754 5752 5749 5744 5741 5738 5735 5732 5730 5727 5724 5723 5723 5722 5722 5721 5719 5718 5718 5717 5717 5717 5717 5716 5715 5713 5712 5712 5711 5710 5708 5707 5705 5703
5736 5733 5731 5726 5723 5707 5704 5719 5753 5750 5753 5752 5753 5754 5753 5751 5749 5747 5744 5741 5738 5735 5731 5727 5726 5724 5722 5721 5721 5720 5719 5718 5717 5716 5716 5716 5716 5716 5715 5714 5713 5711 5710 5709 5707 5706 5705 5704 5702
5740 5734 5729 5711 5713 5720 5710 5717 5760 5758 5758 5755 5753 5753 5753 5750 5749 5746 5743 5739 5735 5732 5729 5727 5725 5723 5721 5721 5719 5718 5717 5716 5715 5714 5714 5715 5715 5715 5715 5714 5712 5711 5709 5708 5705 5704 5703 5702 5700